Home > Weather > Bielsko-Biała > Past weeks

Flag for Poland Weather for the Past 2 Weeks in Bielsko-Biała, Poland

Now
37 °F

Fog.


Feels Like: 37 °F
Forecast: 40 / 63 °F
Wind: 1 mph from Northeast

Location: Katowice

Current Time: Apr 30, 2016 at 8:03:49 AM

Latest Report: Apr 30, 2016 at 7:00 AM


Visibility: 6 mi

Pressure: 30.19 "Hg

Humidity: 96%

Dew Point: 36 °F

Location of Bielsko-BiałaLocation

Historic Weather in Bielsko-Biała — Graph

°F

Bielsko-Biała Temperature Yesterday

Maximum temperature yesterday: 55 °F (at 2:00 PM)
Minimum temperature yesterday: 39 °F (at 11:00 PM)
Average temperature yesterday: 51 °F

High & Low Weather Summary for the Past Weeks

 TemperatureHumidityPressure
High69 °F (Apr 17, 2:00 PM)98% (Apr 19, 7:00 AM)30.38 "Hg (Apr 19, 7:00 AM)
Low26 °F (Apr 26, 5:00 AM)29% (Apr 23, 1:00 PM)29.62 "Hg (Apr 26, 5:00 PM)
Average48 °F63%29.93 "Hg
* Reported Apr 15 6:00 AM — Apr 30 6:00 AM, Bielsko-Biała, Weather by CustomWeather, © 2016

Note: Actual official high and low records may vary slightly from our data, if they occured in-between our weather recording intervals... More about our weather records

Advertising

Bielsko-Biała Weather History for the Previous 24 Hours

Scroll right to see more
 ConditionsComfort  
Time TempWeatherWind HumidityBarometerVisibility
6:00 AM
Sat, Apr 30
32 °FFog.No wind96%30.19 "Hg6 mi
3:00 AM35 °FPassing clouds.No wind92%30.19 "Hg6 mi
2:00 AM35 °FPassing clouds.No wind91%30.19 "Hg6 mi
1:00 AM37 °FClear.No wind86%30.19 "Hg6 mi
12:00 AM40 °FClear.1 mph78%30.19 "Hg6 mi
11:00 PM
Fri, Apr 29
39 °FClear.1 mph77%30.18 "Hg6 mi
10:00 PM42 °FClear.No wind69%30.18 "Hg6 mi
9:00 PM46 °FClear.1 mph57%30.17 "Hg12 mi
8:00 PM50 °FPassing clouds.2 mph48%30.16 "Hg19 mi
7:00 PM54 °FPassing clouds.5 mph40%30.14 "Hg19 mi
6:00 PM55 °FPassing clouds.6 mph40%30.13 "Hg19 mi
5:00 PM55 °FPassing clouds.3 mph37%30.14 "Hg19 mi
4:00 PM55 °FScattered clouds.2 mph34%30.15 "Hg19 mi
3:00 PM55 °FScattered clouds.3 mph36%30.15 "Hg19 mi
2:00 PM55 °FPassing clouds.2 mph37%30.15 "Hg19 mi
1:00 PM53 °FPassing clouds.2 mph42%30.17 "Hg19 mi
Weather by CustomWeather, © 2016

See weather overviewHow to use our weather pages